User: anonymous   Login
Location: Newark
(52.2583°N, 7.1190°W)
Time: 04:02:11
(UTC+00:00)
Language:

S-56A Canister/Altair - Orbit

View from above orbital plane
View from above orbital plane
View from above satellite
View from above satellite

Ground track
Ground track

The orbit data is extracted from the following two-line orbital elements,

1    82U 61004B   19315.32554352 -.00000001 +00000-0 +47655-4 0  9992
2    82 038.8558 289.7614 1173631 105.9919 267.3004 12.26055391780913
Epoch (UTC): 11 November 2019 07:48:46
Eccentricity: 0.1173631
inclination: 38.8558°
perigee height: 634 km
apogee height: 2498 km
right ascension of ascending node: 289.7614°
argument of perigee: 105.9919°
revolutions per day: 12.26055391
mean anomaly at epoch: 267.3004°
orbit number at epoch: 78091

The dashed part of the orbit path shows where the satellite is in the earth's shadow,  

DLR